Location: Newark
(25.0000°N, 73.5000°E)
Time: 19:17:29
(UTC+00:00)

Transit 2A - All Passes

Search period start: 29 July 2021 00:00
Search period end: 08 August 2021 00:00
Orbit: 598 x 960 km, 66.7° (Epoch: 28 July)

Date Brightness Start Highest point End Pass type
(mag) Time Alt. Az. Time Alt. Az. Time Alt. Az.
29 Jul - 00:09:51 10° SE 00:11:15 11° ESE 00:12:39 10° E visible
29 Jul - 01:49:57 10° SW 01:53:54 35° WNW 01:57:58 10° N daylight
29 Jul - 10:43:26 10° N 10:48:21 29° ENE 10:53:33 10° ESE daylight
29 Jul - 12:26:18 10° NW 12:31:27 32° WSW 12:36:53 10° S daylight
30 Jul - 01:15:27 10° SSW 01:19:42 63° WNW 01:24:04 10° NNE daylight
30 Jul - 10:10:01 10° NNE 10:14:02 19° ENE 10:18:15 10° ESE daylight
30 Jul - 11:51:42 10° NW 11:57:20 49° WSW 12:03:19 10° S daylight
31 Jul - 00:41:16 10° SSW 00:45:32 72° ESE 00:49:55 10° NNE daylight
31 Jul - 09:37:20 10° NNE 09:39:40 12° ENE 09:42:03 10° E daylight
31 Jul - 11:17:21 10° NNW 11:23:10 76° WSW 11:29:25 10° SSE daylight
01 Aug - 00:07:25 10° S 00:11:26 39° ESE 00:15:31 10° NE visible
01 Aug - 01:53:07 10° WNW 01:54:42 12° WNW 01:56:19 10° NW daylight
01 Aug - 10:43:12 10° NNW 10:49:00 72° ENE 10:55:14 10° SSE daylight
01 Aug - 12:29:41 10° W 12:31:46 12° WSW 12:33:53 10° SW daylight
01 Aug - 23:34:00 10° SSE 23:37:22 22° ESE 23:40:47 10° NE visible
02 Aug - 01:17:11 10° WSW 01:20:20 19° WNW 01:23:34 10° NNW daylight
02 Aug - 10:09:13 10° N 10:14:48 47° ENE 10:20:45 10° SE daylight
02 Aug - 11:53:36 10° WNW 11:57:43 19° WSW 12:01:58 10° SSW daylight
02 Aug - 23:01:23 10° SE 23:03:20 13° ESE 23:05:18 10° ENE visible
03 Aug - 00:42:10 10° SW 00:46:02 32° WNW 00:50:02 10° N daylight
03 Aug - 09:35:27 10° N 09:40:34 31° ENE 09:45:58 10° ESE daylight
03 Aug - 11:18:34 10° NW 11:23:38 30° WSW 11:28:57 10° SSW daylight
04 Aug - 00:07:35 10° SW 00:11:49 56° WNW 00:16:11 10° NNE visible
04 Aug - 09:01:58 10° NNE 09:06:16 21° ENE 09:10:46 10° ESE daylight
04 Aug - 10:43:55 10° NW 10:49:31 46° WSW 10:55:27 10° S daylight
04 Aug - 23:33:21 10° SSW 23:37:39 81° ESE 23:42:05 10° NNE visible
05 Aug - 08:29:01 10° NNE 08:31:53 14° ENE 08:34:51 10° E daylight
05 Aug - 10:09:31 10° NNW 10:15:23 70° WSW 10:21:37 10° SSE daylight
05 Aug - 22:59:27 10° S 23:03:32 44° ESE 23:07:44 10° NE visible
06 Aug - 00:45:51 10° WNW 00:46:52 11° NW 00:47:54 10° NW daylight
06 Aug - 09:35:19 10° NNW 09:41:13 78° ENE 09:47:29 10° SSE daylight
06 Aug - 11:22:37 10° W 11:23:55 11° WSW 11:25:15 10° WSW daylight
06 Aug - 22:25:56 10° SSE 22:29:28 25° ESE 22:33:04 10° NE visible
07 Aug - 00:09:31 10° WSW 00:12:29 18° WNW 00:15:32 10° NNW visible
07 Aug - 09:01:18 10° N 09:07:01 51° ENE 09:13:04 10° SE daylight
07 Aug - 10:46:00 10° WNW 10:49:53 18° WSW 10:53:54 10° SW daylight
07 Aug - 21:53:05 10° SE 21:55:26 14° ESE 21:57:48 10° ENE visible
07 Aug - 23:34:23 10° WSW 23:38:11 29° WNW 23:42:05 10° N visible
